Location: Shepherdstown, WV
(39.4326°N, 77.8042°W)
Time: 06:29:51
(UTC-04:00)

SR - Pass Details

Date: 10 August 2021
Orbit: 581 x 874 km, 66.7° (Epoch: 24 September)

Event Time Altitude Azimuth Distance (km) Brightness Sun altitude
Rises 03:59:36 0° 184° (S) 3,441 - -23.2°
Reaches altitude 10° 04:02:17 10° 176° (S) 2,494 - -22.9°
Exits shadow 04:04:34 22° 161° (SSE) 1,776 ? -22.6°
Maximum altitude 04:07:31 36° 111° (ESE) 1,295 ? -22.2°
Drops below altitude 10° 04:12:33 10° 46° (NE) 2,390 ? -21.5°
Sets 04:15:04 0° 38° (NE) 3,280 ? -21.1°
